sat.trackr.live / text

‹ back to catalog

STARLINK-31824

NORAD 59804 · 2024-093Y

PAYLOAD ACTIVE UNKNOWN

§ Identity

Operator
Country
US
Launch date
2024-05-18
Launch site
AFETR
Launch vehicle
Mass (kg)
RCS (m²)

Purposes: comms

External: N2YO · Heavens-Above · Gunter

§ Orbital elements

Epoch: 2026-09-21T11:07:19.841376Z

Period
94.27 min
Inclination
43.0015°
Eccentricity
0.0001279
Mean motion
15.27574120 rev/d
Perigee alt
482.2 km
Apogee alt
483.9 km
Semi-major
6,861.2 km
B*
5.5854e-6
RAAN
183.5073°
Arg perigee
273.5444°
Mean anomaly
86.5261°
Rev number
13,263

§ Raw data

STARLINK-318241 59804U 24093Y   26264.46342409 -.00000108  00000+0  55854-5 0  99972 59804  43.0015 183.5073 0001279 273.5444  86.5261 15.27574120132633

JSON: /api/v1/satellites/59804 · /tle

For live sub-satellite position, see the globe view (requires WebGL).

§ Visibility from observer

Set your observer location to see the next 7 days of passes ≥ 10°. The values pass through the URL so the page stays shareable.

No JS? Fill the form by hand. The geolocation button needs JavaScript.